Time,TemperatureF,DewpointF,PressureIn,WindDirection,WindDirectionDegrees,WindSpeedMPH,WindSpeedGustMPH,Humidity,HourlyPrecipIn,Conditions,Clouds,dailyrainin,SoftwareType,DateUTC
2017-03-25 00:04:00,46.7,35.2,30.10,West,260,1.0,5.0,64,0.00,,---,0.00,VWS V15.00,2017-03-25 04:04:00,
2017-03-25 00:11:00,46.8,35.3,30.10,West,260,0.0,3.0,64,0.00,,---,0.00,VWS V15.00,2017-03-25 04:11:00,
2017-03-25 00:16:00,46.8,35.3,30.10,WSW,255,2.0,6.0,64,0.00,,---,0.00,VWS V15.00,2017-03-25 04:16:00,
2017-03-25 00:21:00,47.1,35.2,30.10,WSW,252,0.0,5.0,63,0.00,,---,0.00,VWS V15.00,2017-03-25 04:21:00,
2017-03-25 00:27:00,47.3,35.4,30.10,WSW,258,4.0,4.0,63,0.00,,---,0.00,VWS V15.00,2017-03-25 04:27:00,
2017-03-25 00:33:00,47.4,35.5,30.10,WSW,257,0.0,0.0,63,0.00,,---,0.00,VWS V15.00,2017-03-25 04:33:00,
2017-03-25 00:39:00,47.6,35.6,30.10,West,276,4.0,7.0,63,0.00,,---,0.00,VWS V15.00,2017-03-25 04:39:00,
2017-03-25 00:45:00,47.8,35.4,30.10,West,266,0.0,5.0,62,0.00,,---,0.00,VWS V15.00,2017-03-25 04:45:00,
2017-03-25 00:51:00,47.6,35.6,30.11,West,266,0.0,5.0,63,0.00,,---,0.00,VWS V15.00,2017-03-25 04:51:00,
2017-03-25 00:56:00,47.6,35.6,30.11,West,265,0.0,2.0,63,0.00,,---,0.00,VWS V15.00,2017-03-25 04:56:00,
2017-03-25 01:01:00,47.5,35.5,30.10,West,264,0.0,2.0,63,0.00,,---,0.00,VWS V15.00,2017-03-25 05:01:00,
2017-03-25 01:07:00,47.5,35.5,30.10,West,264,0.0,0.0,63,0.00,,---,0.00,VWS V15.00,2017-03-25 05:07:00,
2017-03-25 01:13:00,47.4,35.5,30.10,West,264,0.0,3.0,63,0.00,,---,0.00,VWS V15.00,2017-03-25 05:13:00,
2017-03-25 01:19:00,47.5,35.9,30.09,West,264,0.0,1.0,64,0.00,,---,0.00,VWS V15.00,2017-03-25 05:19:00,
2017-03-25 01:25:00,47.5,35.9,30.09,West,264,2.0,4.0,64,0.00,,---,0.00,VWS V15.00,2017-03-25 05:25:00,
2017-03-25 01:31:00,47.9,36.3,30.09,WSW,258,0.0,5.0,64,0.00,,---,0.00,VWS V15.00,2017-03-25 05:31:00,
2017-03-25 01:37:00,48.2,36.2,30.09,WSW,257,0.0,1.0,63,0.00,,---,0.00,VWS V15.00,2017-03-25 05:37:00,
2017-03-25 01:43:00,48.4,36.4,30.09,WSW,258,0.0,2.0,63,0.00,,---,0.00,VWS V15.00,2017-03-25 05:43:00,
2017-03-25 01:49:00,48.5,36.1,30.08,West,276,0.0,6.0,62,0.00,,---,0.00,VWS V15.00,2017-03-25 05:49:00,
2017-03-25 01:55:00,48.5,36.5,30.08,West,276,1.0,4.0,63,0.00,,---,0.00,VWS V15.00,2017-03-25 05:55:00,
2017-03-25 02:01:00,48.3,36.3,30.08,West,276,0.0,1.0,63,0.00,,---,0.00,VWS V15.00,2017-03-25 06:01:00,
2017-03-25 02:06:00,48.2,36.2,30.08,West,276,0.0,3.0,63,0.00,,---,0.00,VWS V15.00,2017-03-25 06:06:00,
2017-03-25 02:11:00,48.1,36.1,30.08,West,276,0.0,4.0,63,0.00,,---,0.00,VWS V15.00,2017-03-25 06:11:00,
2017-03-25 02:16:00,48.0,36.0,30.08,West,276,0.0,0.0,63,0.00,,---,0.00,VWS V15.00,2017-03-25 06:16:00,
2017-03-25 02:21:00,47.8,36.2,30.08,West,276,0.0,0.0,64,0.00,,---,0.00,VWS V15.00,2017-03-25 06:21:00,
2017-03-25 02:26:00,47.8,36.2,30.08,West,275,0.0,3.0,64,0.00,,---,0.00,VWS V15.00,2017-03-25 06:26:00,
2017-03-25 02:31:00,47.9,36.3,30.08,West,273,3.0,3.0,64,0.00,,---,0.00,VWS V15.00,2017-03-25 06:31:00,
2017-03-25 02:37:00,48.1,36.5,30.08,West,272,2.0,2.0,64,0.00,,---,0.00,VWS V15.00,2017-03-25 06:37:00,
2017-03-25 02:43:00,48.2,36.6,30.08,West,269,2.0,4.0,64,0.00,,---,0.00,VWS V15.00,2017-03-25 06:43:00,
2017-03-25 02:49:00,48.3,36.7,30.07,West,268,0.0,3.0,64,0.00,,---,0.00,VWS V15.00,2017-03-25 06:49:00,
2017-03-25 02:55:00,48.4,36.8,30.07,WSW,255,2.0,4.0,64,0.00,,---,0.00,VWS V15.00,2017-03-25 06:55:00,
2017-03-25 03:01:00,48.4,36.4,30.06,WSW,242,0.0,5.0,63,0.00,,---,0.00,VWS V15.00,2017-03-25 07:01:00,
2017-03-25 03:06:00,48.5,36.5,30.06,WSW,241,1.0,6.0,63,0.00,,---,0.00,VWS V15.00,2017-03-25 07:06:00,
2017-03-25 03:12:00,48.5,36.5,30.06,SW,228,0.0,0.0,63,0.00,,---,0.00,VWS V15.00,2017-03-25 07:12:00,
2017-03-25 03:18:00,48.4,36.4,30.06,SW,231,1.0,3.0,63,0.00,,---,0.00,VWS V15.00,2017-03-25 07:18:00,
2017-03-25 03:24:00,48.3,36.7,30.06,WSW,241,0.0,3.0,64,0.00,,---,0.00,VWS V15.00,2017-03-25 07:24:00,
2017-03-25 03:30:00,48.1,36.5,30.06,WSW,242,0.0,4.0,64,0.00,,---,0.00,VWS V15.00,2017-03-25 07:30:00,
2017-03-25 03:36:00,48.0,36.8,30.06,WSW,242,0.0,0.0,65,0.00,,---,0.00,VWS V15.00,2017-03-25 07:36:00,
2017-03-25 03:41:00,47.8,36.6,30.06,WSW,242,1.0,2.0,65,0.00,,---,0.00,VWS V15.00,2017-03-25 07:41:00,
2017-03-25 03:48:00,47.7,36.5,30.05,WSW,240,2.0,4.0,65,0.00,,---,0.00,VWS V15.00,2017-03-25 07:48:00,
2017-03-25 03:54:00,47.7,36.9,30.05,WSW,240,0.0,3.0,66,0.00,,---,0.00,VWS V15.00,2017-03-25 07:54:00,
2017-03-25 04:00:00,47.6,36.8,30.05,WSW,240,2.0,3.0,66,0.00,,---,0.00,VWS V15.00,2017-03-25 08:00:00,
2017-03-25 04:06:00,47.6,36.8,30.05,WSW,240,0.0,3.0,66,0.00,,---,0.00,VWS V15.00,2017-03-25 08:06:00,
2017-03-25 04:11:00,47.4,36.6,30.05,WSW,240,0.0,2.0,66,0.00,,---,0.00,VWS V15.00,2017-03-25 08:11:00,
2017-03-25 04:16:00,47.3,36.9,30.05,WSW,240,0.0,1.0,67,0.00,,---,0.00,VWS V15.00,2017-03-25 08:16:00,
2017-03-25 04:21:00,47.1,36.7,30.05,WSW,240,0.0,0.0,67,0.00,,---,0.00,VWS V15.00,2017-03-25 08:21:00,
2017-03-25 04:26:00,46.8,36.8,30.05,WSW,240,0.0,0.0,68,0.00,,---,0.00,VWS V15.00,2017-03-25 08:26:00,
2017-03-25 04:32:00,46.8,36.8,30.06,WSW,240,2.0,4.0,68,0.00,,---,0.00,VWS V15.00,2017-03-25 08:32:00,
2017-03-25 04:38:00,47.0,37.0,30.06,WSW,240,0.0,4.0,68,0.00,,---,0.00,VWS V15.00,2017-03-25 08:38:00,
2017-03-25 04:44:00,47.2,37.2,30.06,WSW,239,2.0,2.0,68,0.00,,---,0.00,VWS V15.00,2017-03-25 08:44:00,
2017-03-25 04:55:00,47.6,38.0,30.06,WSW,239,0.0,3.0,69,0.00,,---,0.00,VWS V15.00,2017-03-25 08:55:00,
2017-03-25 05:01:00,47.7,38.0,30.07,WSW,240,3.0,3.0,69,0.00,,---,0.00,VWS V15.00,2017-03-25 09:01:00,
2017-03-25 05:06:00,47.9,38.2,30.07,WSW,238,1.0,5.0,69,0.00,,---,0.00,VWS V15.00,2017-03-25 09:06:00,
2017-03-25 05:13:00,48.3,38.6,30.07,WSW,243,2.0,4.0,69,0.00,,---,0.00,VWS V15.00,2017-03-25 09:13:00,
2017-03-25 05:19:00,48.5,38.8,30.07,WSW,246,0.0,3.0,69,0.00,,---,0.00,VWS V15.00,2017-03-25 09:19:00,
2017-03-25 05:25:00,48.5,38.4,30.07,WSW,246,0.0,1.0,68,0.00,,---,0.00,VWS V15.00,2017-03-25 09:25:00,
2017-03-25 05:31:00,48.5,38.8,30.07,WSW,246,0.0,3.0,69,0.00,,---,0.00,VWS V15.00,2017-03-25 09:31:00,
2017-03-25 05:36:00,48.5,38.8,30.07,WSW,246,0.0,3.0,69,0.00,,---,0.00,VWS V15.00,2017-03-25 09:36:00,
2017-03-25 05:41:00,48.4,39.1,30.07,WSW,248,2.0,3.0,70,0.00,,---,0.00,VWS V15.00,2017-03-25 09:41:00,
2017-03-25 05:46:00,48.5,39.2,30.08,WSW,248,0.0,2.0,70,0.00,,---,0.00,VWS V15.00,2017-03-25 09:46:00,
2017-03-25 05:51:00,48.6,39.3,30.08,WSW,248,3.0,3.0,70,0.00,,---,0.00,VWS V15.00,2017-03-25 09:51:00,
2017-03-25 05:57:00,48.6,39.3,30.08,WSW,248,0.0,1.0,70,0.00,,---,0.00,VWS V15.00,2017-03-25 09:57:00,
2017-03-25 06:03:00,48.7,39.7,30.07,WSW,248,0.0,0.0,71,0.00,,---,0.00,VWS V15.00,2017-03-25 10:03:00,
2017-03-25 06:09:00,48.7,39.7,30.07,WSW,248,1.0,1.0,71,0.00,,---,0.00,VWS V15.00,2017-03-25 10:09:00,
2017-03-25 06:15:00,48.7,40.1,30.08,WSW,248,0.0,1.0,72,0.00,,---,0.00,VWS V15.00,2017-03-25 10:15:00,
2017-03-25 06:21:00,48.7,40.1,30.08,WSW,248,0.0,2.0,72,0.00,,---,0.00,VWS V15.00,2017-03-25 10:21:00,
2017-03-25 06:26:00,48.7,40.1,30.08,WSW,248,0.0,0.0,72,0.00,,---,0.00,VWS V15.00,2017-03-25 10:26:00,
2017-03-25 06:31:00,48.8,40.2,30.08,WSW,248,0.0,0.0,72,0.00,,---,0.00,VWS V15.00,2017-03-25 10:31:00,
2017-03-25 06:36:00,48.9,40.3,30.08,WSW,248,0.0,0.0,72,0.00,,---,0.00,VWS V15.00,2017-03-25 10:36:00,
2017-03-25 06:41:00,48.8,40.5,30.08,WSW,248,0.0,0.0,73,0.00,,---,0.00,VWS V15.00,2017-03-25 10:41:00,
2017-03-25 06:46:00,48.8,40.5,30.08,WSW,248,0.0,0.0,73,0.00,,---,0.00,VWS V15.00,2017-03-25 10:46:00,
2017-03-25 06:51:00,49.0,40.7,30.08,WSW,248,0.0,0.0,73,0.00,,---,0.00,VWS V15.00,2017-03-25 10:51:00,
2017-03-25 06:57:00,49.3,41.0,30.08,WSW,248,0.0,2.0,73,0.00,,---,0.00,VWS V15.00,2017-03-25 10:57:00,
2017-03-25 07:04:00,49.3,41.0,30.08,WSW,248,0.0,0.0,73,0.00,,---,0.00,VWS V15.00,2017-03-25 11:04:00,
2017-03-25 07:10:00,49.2,40.9,30.08,WSW,248,0.0,0.0,73,0.00,,---,0.00,VWS V15.00,2017-03-25 11:10:00,
2017-03-25 07:16:00,49.1,41.2,30.10,WSW,248,0.0,2.0,74,0.00,,---,0.00,VWS V15.00,2017-03-25 11:16:00,
2017-03-25 07:21:00,49.1,41.2,30.10,WSW,248,0.0,0.0,74,0.00,,---,0.00,VWS V15.00,2017-03-25 11:21:00,
2017-03-25 07:28:00,49.2,41.3,30.10,WSW,248,0.0,0.0,74,0.00,,---,0.00,VWS V15.00,2017-03-25 11:28:00,
2017-03-25 07:34:00,49.2,41.6,30.10,WSW,248,0.0,2.0,75,0.00,,---,0.00,VWS V15.00,2017-03-25 11:34:00,
2017-03-25 07:40:00,49.6,41.7,30.10,WSW,248,1.0,2.0,74,0.00,,---,0.00,VWS V15.00,2017-03-25 11:40:00,
2017-03-25 07:46:00,50.0,42.0,30.11,WSW,248,0.0,2.0,74,0.00,,---,0.00,VWS V15.00,2017-03-25 11:46:00,
2017-03-25 07:51:00,50.3,42.3,30.11,WSW,248,0.0,0.0,74,0.00,,---,0.00,VWS V15.00,2017-03-25 11:51:00,
2017-03-25 07:56:00,50.4,42.4,30.11,WSW,248,0.0,0.0,74,0.00,,---,0.00,VWS V15.00,2017-03-25 11:56:00,
2017-03-25 08:02:00,50.2,41.9,30.11,WSW,248,0.0,0.0,73,0.00,,---,0.00,VWS V15.00,2017-03-25 12:02:00,
2017-03-25 08:08:00,49.9,42.7,30.11,WSW,248,1.0,3.0,76,0.00,,---,0.00,VWS V15.00,2017-03-25 12:08:00,
2017-03-25 08:14:00,50.2,42.9,30.11,WSW,248,0.0,0.0,76,0.00,,---,0.00,VWS V15.00,2017-03-25 12:14:00,
2017-03-25 08:20:00,50.5,42.9,30.11,WSW,248,0.0,0.0,75,0.00,,---,0.00,VWS V15.00,2017-03-25 12:20:00,
2017-03-25 08:26:00,50.8,43.2,30.11,WSW,248,0.0,1.0,75,0.00,,---,0.00,VWS V15.00,2017-03-25 12:26:00,
2017-03-25 08:31:00,51.0,43.4,30.11,WSW,248,0.0,1.0,75,0.00,,---,0.00,VWS V15.00,2017-03-25 12:31:00,
2017-03-25 08:36:00,50.9,43.3,30.11,WSW,248,0.0,0.0,75,0.00,,---,0.00,VWS V15.00,2017-03-25 12:36:00,
2017-03-25 08:41:00,50.7,42.7,30.11,WSW,248,0.0,0.0,74,0.00,,---,0.00,VWS V15.00,2017-03-25 12:41:00,
2017-03-25 08:46:00,50.5,42.2,30.12,WSW,248,0.0,0.0,73,0.00,,---,0.00,VWS V15.00,2017-03-25 12:46:00,
2017-03-25 08:52:00,50.2,42.2,30.12,WSW,248,0.0,0.0,74,0.00,,---,0.00,VWS V15.00,2017-03-25 12:52:00,
2017-03-25 08:58:00,49.9,42.3,30.12,WSW,248,0.0,0.0,75,0.00,,---,0.00,VWS V15.00,2017-03-25 12:58:00,
2017-03-25 09:04:00,49.7,42.8,30.13,WSW,248,0.0,0.0,77,0.00,,---,0.00,VWS V15.00,2017-03-25 13:04:00,
2017-03-25 09:10:00,49.6,43.0,30.13,WSW,248,0.0,0.0,78,0.00,,---,0.00,VWS V15.00,2017-03-25 13:10:00,
2017-03-25 09:12:00,49.6,43.0,30.13,WSW,248,0.0,0.0,78,0.00,,---,0.00,VWS V15.00,2017-03-25 13:12:00,
2017-03-25 09:18:00,49.7,42.8,30.13,WSW,248,0.0,0.0,77,0.00,,---,0.00,VWS V15.00,2017-03-25 13:18:00,
2017-03-25 09:24:00,50.0,43.4,30.13,WSW,248,0.0,0.0,78,0.00,,---,0.00,VWS V15.00,2017-03-25 13:24:00,
2017-03-25 09:30:00,50.4,43.5,30.13,WSW,248,0.0,0.0,77,0.00,,---,0.00,VWS V15.00,2017-03-25 13:30:00,
2017-03-25 09:36:00,50.8,44.5,30.13,WSW,248,0.0,0.0,79,0.00,,---,0.00,VWS V15.00,2017-03-25 13:36:00,
2017-03-25 09:41:00,51.1,44.8,30.13,NW,317,0.0,0.0,79,0.00,,---,0.00,VWS V15.00,2017-03-25 13:41:00,
2017-03-25 09:46:00,51.4,45.1,30.13,West,279,0.0,0.0,79,0.00,,---,0.00,VWS V15.00,2017-03-25 13:46:00,
2017-03-25 09:51:00,51.8,45.2,30.13,West,279,0.0,0.0,78,0.00,,---,0.00,VWS V15.00,2017-03-25 13:51:00,
2017-03-25 09:57:00,52.4,44.7,30.13,West,279,0.0,0.0,75,0.00,,---,0.00,VWS V15.00,2017-03-25 13:57:00,
2017-03-25 10:03:00,53.3,45.2,30.13,West,279,0.0,0.0,74,0.00,,---,0.00,VWS V15.00,2017-03-25 14:03:00,
2017-03-25 10:09:00,53.9,45.1,30.13,West,279,1.0,2.0,72,0.00,,---,0.00,VWS V15.00,2017-03-25 14:09:00,
2017-03-25 10:15:00,54.4,45.2,30.13,West,279,0.0,0.0,71,0.00,,---,0.00,VWS V15.00,2017-03-25 14:15:00,
2017-03-25 10:21:00,54.8,46.0,30.13,West,279,0.0,0.0,72,0.00,,---,0.00,VWS V15.00,2017-03-25 14:21:00,
2017-03-25 10:26:00,55.5,46.6,30.13,West,280,0.0,0.0,72,0.00,,---,0.00,VWS V15.00,2017-03-25 14:26:00,
2017-03-25 10:31:00,56.2,46.6,30.14,West,280,0.0,0.0,70,0.00,,---,0.00,VWS V15.00,2017-03-25 14:31:00,
2017-03-25 10:36:00,56.7,46.7,30.14,West,280,0.0,0.0,69,0.00,,---,0.00,VWS V15.00,2017-03-25 14:36:00,
2017-03-25 10:43:00,57.6,47.5,30.14,West,280,0.0,0.0,69,0.00,,---,0.00,VWS V15.00,2017-03-25 14:43:00,
2017-03-25 10:49:00,58.3,46.6,30.13,West,280,1.0,3.0,65,0.00,,---,0.00,VWS V15.00,2017-03-25 14:49:00,
2017-03-25 10:55:00,58.4,46.7,30.13,West,280,0.0,0.0,65,0.00,,---,0.00,VWS V15.00,2017-03-25 14:55:00,
2017-03-25 11:01:00,58.9,47.6,30.14,West,280,2.0,2.0,66,0.00,,---,0.00,VWS V15.00,2017-03-25 15:01:00,
2017-03-25 11:06:00,59.3,47.1,30.14,West,280,0.0,2.0,64,0.00,,---,0.00,VWS V15.00,2017-03-25 15:06:00,
2017-03-25 11:11:00,59.4,47.7,30.14,West,280,0.0,0.0,65,0.00,,---,0.00,VWS V15.00,2017-03-25 15:11:00,
2017-03-25 11:17:00,59.4,47.7,30.14,West,280,0.0,1.0,65,0.00,,---,0.00,VWS V15.00,2017-03-25 15:17:00,
2017-03-25 11:23:00,59.3,47.1,30.14,West,280,0.0,0.0,64,0.00,,---,0.00,VWS V15.00,2017-03-25 15:23:00,
2017-03-25 11:29:00,59.3,47.1,30.14,West,280,0.0,0.0,64,0.00,,---,0.00,VWS V15.00,2017-03-25 15:29:00,
2017-03-25 11:35:00,59.4,48.0,30.14,West,280,0.0,0.0,66,0.00,,---,0.00,VWS V15.00,2017-03-25 15:35:00,
2017-03-25 11:41:00,59.5,48.2,30.14,West,280,0.0,0.0,66,0.00,,---,0.00,VWS V15.00,2017-03-25 15:41:00,
2017-03-25 11:46:00,59.6,48.2,30.14,West,280,0.0,0.0,66,0.00,,---,0.00,VWS V15.00,2017-03-25 15:46:00,
2017-03-25 11:51:00,59.6,47.4,30.14,West,280,0.0,0.0,64,0.00,,---,0.00,VWS V15.00,2017-03-25 15:51:00,
2017-03-25 11:56:00,59.8,48.0,30.14,West,280,0.0,0.0,65,0.00,,---,0.00,VWS V15.00,2017-03-25 15:56:00,
2017-03-25 12:01:00,59.9,48.1,30.13,West,280,0.0,0.0,65,0.00,,---,0.00,VWS V15.00,2017-03-25 16:01:00,
2017-03-25 12:07:00,60.0,48.2,30.13,West,280,0.0,0.0,65,0.00,,---,0.00,VWS V15.00,2017-03-25 16:07:00,
2017-03-25 12:13:00,60.3,48.5,30.13,West,280,0.0,0.0,65,0.00,,---,0.00,VWS V15.00,2017-03-25 16:13:00,
2017-03-25 12:19:00,60.5,48.7,30.14,West,280,0.0,0.0,65,0.00,,---,0.00,VWS V15.00,2017-03-25 16:19:00,
2017-03-25 12:25:00,60.5,49.1,30.14,West,280,0.0,0.0,66,0.00,,---,0.00,VWS V15.00,2017-03-25 16:25:00,
2017-03-25 12:31:00,60.6,48.8,30.14,West,280,0.0,0.0,65,0.00,,---,0.00,VWS V15.00,2017-03-25 16:31:00,
2017-03-25 12:36:00,60.8,48.6,30.14,West,280,0.0,0.0,64,0.00,,---,0.00,VWS V15.00,2017-03-25 16:36:00,
2017-03-25 12:42:00,60.9,48.2,30.14,West,280,0.0,0.0,63,0.00,,---,0.00,VWS V15.00,2017-03-25 16:42:00,
2017-03-25 12:48:00,61.2,48.5,30.14,WNW,295,0.0,0.0,63,0.00,,---,0.00,VWS V15.00,2017-03-25 16:48:00,
2017-03-25 12:54:00,61.4,48.7,30.14,WNW,295,0.0,0.0,63,0.00,,---,0.00,VWS V15.00,2017-03-25 16:54:00,
2017-03-25 13:00:00,61.4,49.1,30.14,WNW,295,0.0,0.0,64,0.00,,---,0.00,VWS V15.00,2017-03-25 17:00:00,
2017-03-25 13:06:00,61.1,48.4,30.14,WNW,295,0.0,0.0,63,0.00,,---,0.00,VWS V15.00,2017-03-25 17:06:00,
2017-03-25 13:11:00,61.1,48.8,30.14,WNW,295,0.0,0.0,64,0.00,,---,0.00,VWS V15.00,2017-03-25 17:11:00,
2017-03-25 13:16:00,61.2,48.5,30.14,WNW,295,0.0,2.0,63,0.00,,---,0.00,VWS V15.00,2017-03-25 17:16:00,
2017-03-25 13:21:00,61.3,48.6,30.14,WNW,295,0.0,0.0,63,0.00,,---,0.00,VWS V15.00,2017-03-25 17:21:00,
2017-03-25 13:26:00,61.4,48.3,30.14,WNW,295,0.0,0.0,62,0.00,,---,0.00,VWS V15.00,2017-03-25 17:26:00,
2017-03-25 13:32:00,61.5,48.8,30.14,WNW,295,0.0,0.0,63,0.00,,---,0.00,VWS V15.00,2017-03-25 17:32:00,
2017-03-25 13:38:00,61.6,48.5,30.14,WNW,295,0.0,0.0,62,0.00,,---,0.00,VWS V15.00,2017-03-25 17:38:00,
2017-03-25 13:44:00,61.8,49.1,30.14,WNW,294,0.0,0.0,63,0.00,,---,0.00,VWS V15.00,2017-03-25 17:44:00,
2017-03-25 13:50:00,62.0,49.7,30.14,WNW,294,0.0,1.0,64,0.00,,---,0.00,VWS V15.00,2017-03-25 17:50:00,
2017-03-25 13:56:00,62.4,48.8,30.14,East,89,1.0,4.0,61,0.00,,---,0.00,VWS V15.00,2017-03-25 17:56:00,
2017-03-25 14:01:00,62.6,49.0,30.14,East,89,0.0,3.0,61,0.00,,---,0.00,VWS V15.00,2017-03-25 18:01:00,
2017-03-25 14:06:00,62.8,49.2,30.14,East,89,0.0,0.0,61,0.00,,---,0.00,VWS V15.00,2017-03-25 18:06:00,